Location: Leeds
(37.2390°N, 113.3580°W)
Time: 21:11:54
(UTC-06:00)

Daily predictions for brighter satellites

Satellite Brightness Start Highest point End
(mag) Time Altitude Azimuth Time Altitude Azimuth Time Altitude Azimuth
YAOGAN 1 4.5 19:37:25 10° SSW 19:41:25 36° W 19:45:26 10° NNW
IDEFIX/ARIANE 42P 3.4 19:36:46 10° S 19:41:54 58° W 19:47:06 10° NNW
CZ-4C R/B 4.5 19:39:54 10° W 19:44:06 22° NW 19:48:43 10° N
Meteor 1-28 Rocket 3.7 19:40:52 10° NNE 19:44:19 36° E 19:47:45 10° SSE
GPS 2-04 Rocket1 2.9 19:42:51 10° WSW 19:46:09 45° SSE 19:49:32 10° E
Timation 1 Rocket 4.4 19:40:17 10° NNW 19:46:17 82° ENE 19:52:14 10° SSE
Atlas Centaur 2 4.5 19:40:24 10° W 19:47:38 32° SSW 19:54:50 10° SE
SAR-Lupe-1 4.4 19:48:09 10° SE 19:51:32 43° ENE 19:54:56 10° N
NOSS 3-2 (A) 4.4 19:45:43 10° SW 19:51:35 52° NW 19:58:00 10° NNE
Cosmos 1805 3.4 19:52:20 10° S 19:56:09 51° E 19:59:59 10° NNE
Okean 3 Rocket 4.4 19:51:46 10° NNW 19:56:14 57° W 20:00:40 10° S
NOAA 12 4.2 19:51:50 10° SSE 19:56:56 53° ENE 20:02:04 10° N
Cosmos 1743 Rocket 4.4 19:54:39 10° NNE 19:58:29 28° ENE 20:02:16 10° SE
Cosmos 1452 Rocket 3.5 19:56:20 10° NNW 20:01:37 73° ENE 20:06:50 10° SSE
ALOS 3.6 19:58:59 10° ESE 20:02:21 20° ENE 20:05:44 10° NNE
Resurs 01 Rocket 2.2 20:02:20 10° SE 20:06:25 37° ENE 20:10:32 10° N
SL-8 R/B 3.9 20:02:22 10° WSW 20:07:08 71° NNW 20:11:55 10° NE
ISS -3.2 20:03:54 10° SW 20:07:09 73° NW 20:10:23 10° NE
Helios 1B rocket 2.9 20:03:42 10° NNE 20:07:33 38° E 20:11:23 10° SSE
Cosmos 1943 3.7 20:04:11 10° SSE 20:09:13 34° ESE 20:14:15 10° NE
Cosmos 2369 Rocket 3.3 20:04:56 10° N 20:09:35 25° ENE 20:12:52 16° ESE
Cosmos 1953 2.2 20:06:12 10° S 20:10:11 82° E 20:14:11 10° N
Gbstr 26 Del rocket 3.1 20:09:52 10° SW 20:14:01 63° SE 20:19:04 10° NE
Cosmos 1733 4.2 20:11:07 10° SE 20:14:18 25° E 20:17:30 10° NE
BREEZE-M DEB (TANK) 3.8 20:12:58 10° W 20:15:11 28° SSW 20:19:48 10° SSE
Cosmos 1603 3.8 20:10:43 10° SSW 20:16:26 84° WNW 20:22:14 10° NNE
CENTAUR R/B 2.6 20:11:06 10° S 20:16:47 51° ESE 20:23:09 10° NE
COSMO-SKYMED 1 4.3 20:13:05 10° N 20:17:05 36° WNW 20:21:03 10° SW
Meteor 2-12 Rocket 4.4 20:14:09 10° S 20:20:17 80° E 20:26:27 10° N
Cosmos 1420 Rocket 4.1 20:15:27 10° N 20:20:42 59° ENE 20:25:56 10° SSE
Cosmos 1470 3.2 20:18:08 10° SSE 20:21:45 38° E 20:25:22 10° NNE
Cosmos 1674 3.2 20:20:29 10° N 20:24:06 37° E 20:26:29 18° SE
Abrixas 4.2 20:23:02 10° W 20:25:42 28° NNW 20:27:53 13° NNE
ASTRO E2 4.5 20:26:33 10° WSW 20:29:48 23° SSW 20:32:03 15° SSE
GP-B 4.2 20:27:09 10° NNE 20:30:26 24° ENE 20:30:26 24° ENE
ATLAS CENTAUR R/B 4.3 20:26:55 10° WSW 20:31:59 55° NNW 20:47:54 10° NE
Spot 2 Rocket 3.4 20:27:53 10° SSE 20:32:53 77° ENE 20:37:56 10° N
Nadezhda 4 Rocket 3.9 20:27:26 10° N 20:33:42 72° E 20:39:51 10° SSE
Cosmos 1766 Rocket 4.5 20:30:30 10° NNW 20:34:43 50° W 20:38:53 10° SSW
HJ-1C 3.3 20:33:05 10° SSE 20:36:26 89° W 20:39:50 10° NNW
Cosmos-2242 3.8 20:32:13 10° SSW 20:36:29 56° W 20:40:49 10° N
FREGAT/IRIS 3.7 20:34:03 10° S 20:37:02 47° W 20:40:02 10° NNW
Cosmos 1048 Rocket 4.0 20:32:03 10° SSW 20:37:21 84° WNW 20:42:38 10° NNE
SJ-6B 4.0 20:34:15 10° S 20:38:04 45° W 20:42:00 10° NNW
Cosmos 2151 4.0 20:35:15 10° NNE 20:38:15 26° ENE 20:38:15 26° ENE
Cosmos 1346 3.4 20:36:13 10° NNW 20:39:10 64° W 20:42:03 10° S
Cosmos 1544 3.9 20:38:32 10° SSW 20:42:12 54° W 20:45:53 10° N
ATLAS 5 CENTAUR R/B 4.1 20:38:27 10° W 20:42:23 24° NW 20:46:34 10° N
Cosmos 1269 Rocket 4.5 20:37:54 10° SSW 20:43:07 63° WNW 20:48:22 10° NNE
Cosmos 1092 Rocket 3.9 20:37:38 10° N 20:43:47 62° E 20:49:51 10° SSE
Cosmos 158 Rocket 3.7 20:43:54 10° S 20:48:45 73° ESE 20:53:37 10° NNE
Cosmos 1174 4.0 20:44:06 10° SSW 20:49:03 86° WNW 20:52:21 15° NNE
Meteor 1-16 Rocket 4.3 20:47:08 10° SSE 20:52:07 44° E 20:57:09 10° NNE
Cosmos 1655 Rocket 4.4 20:48:39 10° N 20:54:21 37° ENE 20:55:08 35° E
Cosmos 2026 Rocket 4.3 20:48:53 10° N 20:54:38 41° ENE 20:55:57 36° ESE
CZ-4B DEB 3.5 20:55:35 43° NNE 20:55:35 43° NNE 20:57:57 10° N
FengYun 1-2 T 4.2 20:49:38 10° SSE 20:55:09 87° WSW 21:00:40 10° NNW
Cosmos 1634 Rocket 3.9 20:51:29 10° S 20:57:39 69° E 21:03:49 10° NNE
OAO 3 Rocket 3.7 20:56:55 10° W 21:01:28 47° SSW 21:02:28 40° SSE
USA 215 3.3 20:57:13 10° NE 21:03:47 82° NW 21:10:19 10° SW
Cosmos 1842 Rocket 4.1 21:01:25 10° SSW 21:05:39 56° W 21:09:57 10° N
Cosmos 1500 Rocket 3.8 21:02:21 10° NNW 21:06:47 68° W 21:10:05 17° S
Meteor 1-11 4.4 21:01:39 10° N 21:07:16 49° ENE 21:07:35 48° E
Helios 1A 4.2 21:08:15 10° S 21:12:13 41° W 21:16:13 10° NNW
ERS-1 Rocket 4.5 21:15:51 23° NNE 21:15:51 23° NNE 21:18:10 10° N
CZ-2D R/B 3.6 21:17:14 62° NW 21:17:14 62° NW 21:20:34 10° NNW
Cosmos 2195 Rocket 4.4 21:10:41 10° N 21:17:01 74° E 21:19:28 40° SSE
FENGYUN 3A 3.8 21:13:59 21° S 21:17:38 74° WSW 21:23:03 10° NNW
GPS 2-04 Rocket1 4.2 21:22:18 10° W 21:24:12 30° WSW 21:24:12 30° WSW
H-2A R/B 3.7 21:27:37 47° NW 21:27:37 47° NW 21:30:40 10° NNW
Cosmos 1110 Rocket 4.1 21:25:51 10° NNW 21:30:36 69° NNE 21:30:36 69° NNE
ALOS 3.6 21:37:20 24° SSW 21:39:30 37° W 21:43:51 10° NNW
Resurs 01 Rocket 4.3 21:40:01 10° SW 21:43:00 18° W 21:46:00 10° NW
ISS 0.0 21:42:31 10° NW 21:43:12 12° NW 21:43:12 12° NW
Cosmos 1943 Rocket 2.8 21:40:14 10° NNW 21:44:17 46° N 21:44:17 46° N
Cosmos 2251 Rocket 4.1 21:42:08 10° SSW 21:47:15 55° WNW 21:52:25 10° N
Cosmos 2369 Rocket 3.2 21:48:25 10° NW 21:53:44 43° WSW 21:54:43 39° SW
CENTAUR R/B 4.2 22:02:26 10° WSW 22:07:45 29° NW 22:13:38 10° NNE
